Regional Weather Roundup
Issued by NWS Newport/Morehead, NC

Current Version | Previous Version | Text Only | Print | Product List | Glossary On
Versions: 1 2 3 4 5 6 7 8 9 10 11 12 13 14 15 16 17 18 19 20 21 22 23 24 25 26 27 28 29 30 31 32 33 34 35 36 37 38 39 40 41 42 43 44 45 46 47 48 49 50
000
ASUS42 KMHX 302225
RWRMHX
WEATHER ROUNDUP FOR EASTERN NORTH CAROLINA
NATIONAL WEATHER SERVICE NEWPORT/MOREHEAD CITY NC
600 PM EDT SAT JUL 30 2016

NOTE: "FAIR" INDICATES FEW OR NO CLOUDS BELOW 12,000 FEET
WITH NO SIGNIFICANT WEATHER AND/OR OBSTRUCTIONS TO VISIBILITY

NCZ015>017-031-032-045>047-102-103-302300-
NORTH COAST

CITY           SKY/WX    TMP DP  RH WIND       PRES   REMARKS
EDENTON        CLOUDY    77  77  99 SE5       29.96F
ELIZABETH CITY CLOUDY    75  73  93 SE9       29.98F
KITTY HAWK     RAIN      75  75 100 CALM      30.00S
MANTEO         RAIN      74  73  98 S5G12     30.00F

$$

NCZ045>047-081-094-103-104-302300-
CENTRAL COAST

CITY           SKY/WX    TMP DP  RH WIND       PRES   REMARKS
FRISCO         HVY RAIN  77  74  90 SW13G25   29.98F FOG

$$

NCZ095-097-098-100-101-302300-
SOUTHERN COAST

CITY           SKY/WX    TMP DP  RH WIND       PRES   REMARKS
BEAUFORT       CLOUDY    86  82  88 S9G23     29.95F HX 104
CEDAR ISLAND   NOT AVBL
JACKSONVILLE   MOSUNNY   92  75  57 S12       29.92F HX 103
PINEY ISLAND   NOT AVBL
WILMINGTON     MOSUNNY   92  72  51 S10       29.95R


$$

NCZ011>013-027>030-043-044-078>080-089-090>093-098-302300-
COASTAL PLAIN

CITY           SKY/WX    TMP DP  RH WIND       PRES   REMARKS
AHOSKIE        LGT RAIN  74  73  97 NE5       30.00R
CLINTON        CLOUDY    95  74  49 S5        29.92F HX 105
ELIZABETHTOWN  SUNNY     96  69  40 SW7       29.93S HX 101
GOLDSBORO      MOSUNNY   97  70  41 SW20G25   29.91R HX 104
GREENVILLE     CLOUDY    81  77  89 SE6       29.95S
HAVELOCK       CLOUDY    82  76  81 SE9       29.95F
KENANSVILLE    NOT AVBL
KINSTON        CLOUDY    86  73  66 E9        29.94S
NEW BERN       CLOUDY    81  75  82 E3        29.95F
RICHLANDS      PTSUNNY   94  77  57 S12       29.92F HX 108
ROCKY MOUNT    CLOUDY    93  74  53 S6        29.92S HX 103
WASHINGTON     CLOUDY    78  75  91 SE7       29.94F
WHITEVILLE     CLOUDY    91  74  57 S8        29.94R HX 101

$$

AMZ130-135-150-152-154-156-158-170-250-252-270-ANZ085-086-088-633-658-670-302300-
MARINE OBSERVATIONS

STATION/POSITION TIME  TEMP    WIND        PRES    WAVE   SWELL
                       AIR SEA DIR/SP/G            HT/PER HT/PER
                 (UTC) (F)     (DEG/KT/KT) (MB)    (FT/S) (FT/S)
CHESAPEAKE LIGHT NOT AVBL
64 E VA BEACH    2150   82 83  210/ 10/ 12 1015.0    2/ 6   2/ 6
DUCK             2200   76 77                N/A
2 E DUCK         2211      81                N/A     2/ 6
OREGON INLET     2200   81 81                N/A
13E OREGON INLT  2200      81                N/A     3/ 6   2/ 6
HATTERAS CG      2200   80 83                N/A
DIAMOND BUOY     2150   84 85  180/ 16/ 19 1014.7    3/ 6   2/ 6
CAPE LOOKOUT     2200   85     180/ 15/ 16 1013.9
BEAUFORT LAB     2200   85 83                N/A
30 SE NEW RVR IN 2208   86 85  190/ 16/ 19 1014.2
30 SE NEW RVR IN 2155      85                N/A     3/ 6
27 SE WRIGHTSVLE 2208   86 85  200/ 14/ 17 1014.6
5 SE WRIGHTSVLE  2208   84 81  210/  8/ 12 1014.9
225 S CAPE HAT   2150   85 86  180/  8/ 10 1017.0    2/ 6   2/ 6
41 SE CHARLESTON 2150   86 87  210/ 14/ 16 1014.5    2/ 5   2/ 8

$$




USA.gov is the U.S. government's official web portal to all federal, state and local government web resources and services.